Volver al catálogo

STARLINK-35148

ActivoComunicacionesVLEO
NORAD 65844·PAYLOAD·🇺🇸 United States

Lanzado Sep 29, 2025 desde Vandenberg Space Force Base

Loading…

Próximos Pases (próximas 24 horas)

TLE

ActualizadoSource: CelesTrak SupGP

Época: Sep 14, 2026, 21:04 UTC

1 65844C 25221X   26257.87826389  .00030146  00000+0  89094-3 0  2575
2 65844  53.1584 285.7444 0001237  94.1661 247.3431 15.34366207    11

Sigue STARLINK-35148 en tiempo real con AllMySat

Download on the App Store